ATLAS AGENA B DEB, 631

Orbit data source: Space-Track

ATLAS AGENA B DEB, 631 is space debris in LEO originally from a launch on Fri, 19 Jul 1963 UTC launched from the Air Force Western Test Range (AFWTR). Debris objects in space refer to the collection of defunct objects orbiting the Earth. Examples of debris include non-operational satellites, rocket bodies, and fragments generated from explosions, collisions, or faulty payload assembly.

Loading next visibility...
Identifier
631, 1963-030E
Orbit
LEO
Country
Flag of USUS
Related business
Manufacturer
Unknown
Mission
Spacecraft
Bus & Motor
Unknown
Mass
~10 kg wet, ~10 kg dry
Launch date (UTC)
1963-07-19 (62 years ago)
Launch vehicle
Unknown
Launch site
Air Force Western Test Range (AFWTR)
Object type
Payload
Rocket body
Debris
Shape & HBR
Box, 0.8 m
Radar Cross Section
1.575 m², Medium (>0.1 m² and < 1m²)

Expand to show TLE details & history
Last TLE update: 22 hours ago

TLE from 22 hours ago
0 ATLAS AGENA B DEB
1 00631U 63030E   25258.36240006  .00000002  00000-0  00000-0 0  9997
2 00631  88.4054 232.3134 0165976 358.2205   1.8039  8.55877795942128
Epoch: 2025-09-15T08:41Z
TLE epoch observation values (Epoch: 2025-09-15T08:41:51.365Z)
Latitude
-0.00005°
Longitude
107.28124°
Altitude
3,552.036 km
Speed
6.389 km/s
True Right ascension
15h 29m 15s
True Declination
0° 00' 00"
Sunlit
Object was in daylight at epoch
Visualization orbit readout
Latitude
Unknown
Longitude
Unknown
Altitude
Unknown
Speed
Unknown
Apparent Right ascension
Unknown
Apparent Declination
Unknown
Sunlit
N/A
Visualization observer readout
Local Sidereal Time
23:04:16
Azimuth
Unknown
Elevation
Unknown
Doppler factor
Unknown
Orbital elements
Apogee altitude
3,882.706 km
Perigee altitude
3,547.656 km
Semi-major axis
10,093.318 km
Eccentricity
0.0166
Inclination
88.4054°
RAAN
232.3134°
Arg. of periapsis
358.2205°
True anomaly
1.86504°
Mean anomaly
1.8039°
Eccentric anomaly
1.83434°
Mean motion
2.14039 °/min
Orbital period
168.19 mins
BSTAR
0
Loading maneuver chart data...
Computing Atmospheric mass density...
Loading historical data...
Loading historical data...
Loading historical data...
Loading historical data...
Loading historical data...
Loading historical data...
Loading historical data...

Documentation

Showing up to 5 results
|